Location: Middlebury
(44.0153°N, 73.1678°W)
Time: 11:48:24
(UTC-04:00)

ISS - Visible Passes

Search period start: 24 June 2021 00:00
Search period end: 04 July 2021 00:00
Orbit: 419 x 422 km, 51.6° (Epoch: 24 June)

Date Brightness Start Highest point End Pass type
(mag) Time Alt. Az. Time Alt. Az. Time Alt. Az.
25 Jun -1.2 04:26:00 10° SSE 04:27:39 13° SE 04:29:18 10° ESE visible
27 Jun -2.7 04:28:03 10° SSW 04:31:11 36° SE 04:34:20 10° ENE visible
28 Jun -2.0 03:43:30 15° S 03:45:19 23° SE 03:48:04 10° E visible
29 Jun -1.5 02:59:32 15° SE 02:59:49 15° SE 03:01:49 10° E visible
29 Jun -3.7 04:32:58 10° WSW 04:36:22 81° NNW 04:39:47 10° ENE visible
30 Jun -3.6 03:48:56 21° SW 03:51:04 67° SE 03:54:27 10° ENE visible
01 Jul -3.1 03:05:31 38° S 03:06:08 42° SE 03:09:23 10° ENE visible
02 Jul -2.1 02:22:22 25° ESE 02:22:22 25° ESE 02:24:33 10° ENE visible
02 Jul -3.0 03:55:30 13° W 03:58:28 48° NNW 04:01:48 10° NE visible
03 Jul -1.0 01:39:30 12° E 01:39:30 12° E 01:39:52 10° E visible
03 Jul -3.5 03:12:39 31° WSW 03:14:07 68° NNW 03:17:33 10° NE visible
